x

Sentry Shoal (46131) Wave Buoy

6:00 - Fri 27th May 2016 All times are PDT. -7 hours from GMT.

  • Sig Wave height 1.0ft
  • Peak Period 2s
  • Wind
    13mph, 18mph gusts
  • Sea Temp 56°f
  • Ar Temp 52°f
  • Sea Pressure 1018.9mb
  • Sentry Shoal
  • Sentry Shoal

More Historic Weather Station data

Upgrade to MSW Pro to gain access to the past 30 days of data for over 8000 Wavebouys and Weather Stations around the globe.

Join Pro

Comparision Forecast

View Surf forecast
   
Sex 05/27 6:00 1ft 2s 13 18 mph 1018.9mb 56f 52f
4:00 1.3ft 2s 13 16 mph 1018.8mb 57f 53f
3:00 1.3ft 3s 16 18 mph 1019mb 58f 53f
2:00 1.6ft 3s 18 22 mph 1018.8mb 58f 53f
1:00 1.3ft 3s 18 20 mph 1018.3mb 59f 53f
12:00 1.3ft 2s 16 20 mph 1018.3mb 59f 54f
Qui 05/26 11:00 1.3ft 2s 18 22 mph 1018.3mb 59f 55f
10:00 2ft 3s 16 18 mph 1018.4mb 59f 56f
9:00 1.3ft 3s 18 22 mph 1017.9mb 59f 57f
8:00 1ft 2s 9 11 mph 1018mb 59f 57f
7:00 1ft 2s 11 13 mph 1017.8mb 59f 56f
6:00 1ft 3s 4 11 mph 1018.3mb 59f 59f
5:00 1ft 3s 9
mph
1018.7mb 60f 59f
4:00 0.7ft 2s 13
mph
1019mb 59f 59f
3:00 0.7ft 2s 4 7 mph 1019.5mb 59f 59f
2:00 1ft 3s 9 11 mph 1019.9mb 59f 58f
1:00 1.3ft 2s 13
mph
1020.2mb 59f 57f
12:00 0.7ft 2s 18 22 mph 1020.2mb 59f 56f
11:00 0.7ft 2s 4 9 mph 1020.8mb 58f 56f
10:00 0.7ft 2s 7 9 mph 1021mb 58f 55f
9:00 0.7ft 2s 7 9 mph 1021mb 58f 53f
8:00 1ft 2s 9 11 mph 1020.9mb 58f 53f
7:00 1ft 2s 11 13 mph 1020.9mb 58f 53f
6:00 1ft 2s 11 13 mph 1020.9mb 58f 53f
5:00 1.3ft 3s 13 16 mph 1020.8mb 58f 53f
4:00 1.3ft 3s 16 18 mph 1020.9mb 58f 53f
3:00 1.3ft 3s 16 18 mph 1021mb 59f 54f
2:00 1.3ft 3s 13 18 mph 1020.8mb 59f 55f
1:00 2ft 3s 16 20 mph 1020.6mb 59f 56f
12:00 2ft 4s 20 22 mph 1020.3mb 59f 56f
Qua 05/25 11:00 2ft 3s 20 25 mph 1020.1mb 60f 57f
10:00 2ft 3s 22 27 mph 1019.5mb 60f 58f
9:00 1ft 7s 20 22 mph 1019mb 60f 61f
8:00 0.3ft 2s 13 16 mph 1019mb 62f 63f
7:00  -  3s 9 13 mph 1019mb 63f 65f
6:00 0.3ft 2s 2 4 mph 1019.3mb 64f 63f
5:00 0.3ft 2s 2 4 mph 1019.5mb 64f 63f
4:00 0.3ft 4s 4
mph
1019.7mb 63f 62f
3:00 0.3ft 2s 4
mph
1019.8mb 63f 62f
2:00 0.3ft 2s  -  2 mph 1019.9mb 62f 63f
1:00 0.3ft 2s 4 7 mph 1020mb 60f 60f
12:00 0.7ft 2s 7 9 mph 1020.1mb 60f 59f
11:00 1ft 2s 9 11 mph 1020.1mb 59f 57f
10:00 1ft 3s 11 13 mph 1019.8mb 59f 56f
9:00 1.3ft 2s 13 16 mph 1019.7mb 59f 54f
8:00 1.3ft 3s 13 18 mph 1019.5mb 59f 53f
7:00 1.6ft 3s 13 18 mph 1019.1mb 59f 53f
6:00 1.3ft 3s 16 18 mph 1018.7mb 59f 53f
5:00 1.3ft 3s 16 18 mph 1018.5mb 59f 53f
4:00 1.3ft 3s 16 18 mph 1018.1mb 59f 54f
3:00 1.3ft 3s 16 18 mph 1017.9mb 59f 55f
2:00 1.6ft 2s 16 18 mph 1017.5mb 59f 55f
1:00 1.6ft 3s 18 22 mph 1017mb 59f 56f
12:00 2ft 3s 16 18 mph 1016.7mb 60f 57f
Ter 05/24 11:00 1.6ft 3s 20 22 mph 1016mb 60f 58f
10:00 0.7ft 2s 18 20 mph 1015.3mb 61f 60f
9:00 0.3ft 2s 7 9 mph 1014.9mb 62f 63f
8:00  -  2s 2
mph
1014.3mb 62f 62f
7:00  -  2s 2 4 mph 1014.2mb 62f 62f
6:00  -  2s 4 7 mph 1014.4mb 62f 62f
5:00  -  2s 7
mph
1014.6mb 62f 62f
4:00 0.3ft 2s 7
mph
1014.9mb 62f 61f
3:00  -  3s 7 9 mph 1015.3mb 61f 60f
2:00  -  3s 7 9 mph 1015.4mb 61f 60f
1:00 0.3ft 3s 4 7 mph 1015.3mb 61f 59f
12:00 0.3ft 2s  -  2 mph 1015.2mb 60f 61f
11:00 0.7ft 2s 4 7 mph 1015.1mb 59f 58f
10:00 0.7ft 2s 9 11 mph 1014.8mb 59f 57f
9:00 0.7ft 3s 9 11 mph 1014.7mb 59f 56f
8:00 0.7ft 3s 9 11 mph 1014.5mb 59f 55f
7:00 1ft 2s 11 13 mph 1014.2mb 59f 55f
6:00 1ft 3s 11 13 mph 1014mb 58f 55f
5:00 1ft 3s 9 13 mph 1013.9mb 59f 55f
4:00 1.3ft 3s 16 18 mph 1013.7mb 59f 55f
3:00 1.3ft 3s 16 18 mph 1013.7mb 59f 56f
2:00 1ft 3s 13 16 mph 1013.7mb 59f 57f
1:00 1.3ft 3s 13 16 mph 1013.6mb 59f 58f
12:00 1.3ft 3s 13 16 mph 1013.6mb 59f 58f
Seg 05/23 11:00 1.3ft 3s 13
mph
1013.3mb 59f 59f
10:00 1ft 3s 13 16 mph 1012.9mb 60f 60f
9:00 1ft 3s 13 16 mph 1012.7mb 60f 60f
8:00 1ft 2s 16 18 mph 1012.4mb 60f 60f
7:00 0.7ft 2s 11
mph
1012.3mb 60f 61f
6:00 0.3ft 2s 9 11 mph 1012.3mb 61f 62f
5:00 0.3ft 3s 4 7 mph 1012.5mb 61f 62f
4:00 0.3ft 2s 4 7 mph 1012.8mb 61f 61f
3:00 0.3ft 2s 9
mph
1012.9mb 61f 61f